Wind_Speed
27 27 28 28 28 28 29 29 30 28 28 27 28 28 28 28 28 28 27 27 28 28 28 27 27 28 29 30 30 31 32 33 34 34 35 35 36 37 38 38 39 39 40 41
28 28 29 29 28 29 29 28 29 29 29 28 28 27 27 28 28 28 27 27 28 28 29 29 28 29 29 29 30 30 31 32 33 34 34 35 36 37 37 38 39 40 41 41
29 29 30 29 27 28 29 28 29 29 29 29 28 28 28 28 29 29 28 27 28 29 29 29 30 30 30 30 30 30 31 31 32 33 34 34 35 36 37 38 40 41 41 42
29 29 31 27 26 27 28 28 29 29 28 29 29 28 28 28 29 30 30 29 28 29 29 29 30 30 31 31 32 32 32 32 32 33 34 35 35 36 37 38 39 40 41 42
30 30 29 27 26 27 28 27 27 27 28 28 28 28 27 27 28 29 29 30 29 29 30 30 30 30 30 31 31 31 31 31 32 33 33 34 34 35 36 36 37 38 39 40
29 30 29 26 27 27 28 28 26 26 27 27 28 28 27 28 28 28 29 29 30 30 30 30 30 30 30 30 30 30 31 31 31 32 32 33 33 34 35 36 37 37 38 39
27 29 29 27 26 27 27 27 27 27 27 28 28 28 28 28 28 28 29 29 30 30 30 30 30 30 30 30 30 30 30 31 31 31 32 32 33 34 35 36 37 37 38 38
29 30 28 28 28 28 28 27 27 27 27 27 27 27 27 27 28 28 28 29 29 29 29 29 29 29 30 30 30 31 31 31 32 32 32 33 33 34 35 36 36 37 37 37
30 29 28 28 29 28 28 27 27 27 28 28 27 26 27 27 27 27 28 28 29 28 29 29 29 29 29 29 30 30 31 31 32 32 33 33 33 34 35 35 36 36 37 37
30 28 28 28 28 28 28 28 28 29 29 29 28 28 28 28 28 28 27 27 28 28 28 29 29 29 29 29 30 31 31 31 32 32 33 33 34 34 34 35 35 36 36 37
27 26 26 25 26 27 28 28 28 28 28 28 28 28 28 27 27 28 28 27 27 27 28 28 29 29 29 29 29 29 30 30 31 31 32 32 32 32 33 34 35 36 37 37
25 25 26 25 24 25 25 26 26 26 26 27 27 28 27 27 27 27 27 27 27 27 27 28 28 29 29 29 29 29 30 31 31 30 31 31 32 32 33 34 34 35 36 36
24 24 25 24 24 24 24 25 25 25 25 26 26 27 27 27 27 26 26 26 26 26 26 27 27 28 28 28 29 29 29 30 31 30 31 31 32 32 33 33 34 34 34 35
22 22 23 23 24 24 24 24 24 25 26 26 26 27 27 27 26 26 25 25 26 26 26 26 27 27 28 28 29 29 29 30 30 30 30 31 31 32 32 32 33 33 33 34
21 21 21 21 21 22 23 24 24 25 25 26 26 26 25 25 24 24 24 25 26 25 26 26 26 26 27 28 28 28 29 29 29 29 29 30 30 31 31 31 32 32 32 33
20 20 20 20 20 21 22 23 23 23 24 24 24 24 23 23 23 23 23 24 24 24 25 25 25 26 26 26 26 26 27 27 28 28 28 29 30 30 31 31 31 32 32 32
20 20 20 20 20 20 21 21 22 22 22 22 22 22 22 22 22 23 23 23 23 23 23 24 24 25 25 25 24 25 25 26 26 26 27 28 29 29 30 30 30 30 31 32
20 20 20 20 20 20 21 21 21 21 21 21 21 21 20 20 20 21 21 22 22 22 22 22 23 24 24 24 24 25 25 25 25 25 26 27 27 28 28 28 29 30 30 30
21 21 21 21 21 21 21 21 21 20 20 20 19 19 20 20 20 20 21 21 22 22 23 23 23 23 24 24 24 24 24 24 25 25 25 26 26 27 27 28 29 29 29 30
21 21 21 21 21 21 21 21 20 20 20 19 19 19 20 20 20 21 21 22 22 22 23 23 23 23 23 23 23 24 24 24 25 25 25 26 26 27 27 28 28 29 29 30
20 20 21 20 20 20 20 20 20 19 19 19 18 19 19 20 20 21 21 22 22 22 23 23 23 23 23 23 23 23 24 24 24 25 25 26 26 27 27 27 27 28 29 30
19 19 20 20 19 20 20 20 19 19 19 18 18 18 19 19 20 20 20 21 21 21 21 21 21 21 22 22 23 23 24 24 24 25 25 26 26 26 26 27 27 28 29 30
18 18 19 19 18 18 18 18 18 18 18 18 19 19 19 19 19 19 18 18 19 19 19 19 19 20 21 22 23 23 23 23 24 24 25 26 26 26 27 27 28 28 29 29
17 18 18 17 17 17 16 16 16 16 17 18 18 18 18 18 18 17 17 17 17 17 17 18 18 18 19 20 21 21 22 23 23 23 24 24 25 26 26 27 27 27 28 27
16 17 17 16 16 15 16 16 16 16 16 16 17 16 16 16 16 16 17 17 16 16 16 17 17 17 18 20 20 20 21 21 21 22 23 24 24 25 25 25 25 25 25 24
16 16 16 15 15 15 14 14 15 14 14 14 14 14 14 14 15 15 15 15 15 15 16 16 17 18 18 19 19 19 20 20 21 22 22 22 23 23 23 23 23 23 23 22
14 14 14 14 14 13 13 12 12 12 12 12 12 12 13 13 13 13 13 14 14 14 15 16 17 17 17 18 18 19 19 20 20 20 20 21 21 21 22 22 22 22 21 21
Wind_Direction
260 260 260 261 262 262 264 266 268 269 269 272 271 271 270 267 267 265 263 262 263 263 262 262 260 259 258 258 257 257 257 257 258 260 260 260 259 259 259 260 261 263 263 264
261 260 261 262 263 264 266 268 270 270 270 270 270 269 268 267 266 265 264 262 262 262 261 261 260 260 260 260 259 258 259 259 260 261 262 263 262 262 262 262 262 263 264 265
263 261 262 263 265 266 267 268 269 271 271 269 269 268 267 265 264 264 264 263 262 262 261 260 259 259 260 260 260 261 261 262 262 262 264 264 264 263 264 264 264 264 265 266
265 264 264 267 265 265 266 267 269 269 268 267 266 267 267 266 265 263 262 261 261 262 263 263 261 261 261 260 261 261 263 264 263 263 265 265 265 264 264 265 265 265 266 266
265 266 267 266 267 267 267 266 267 267 266 266 265 265 265 266 266 264 263 263 262 262 262 263 262 262 262 261 261 263 264 264 265 264 265 265 265 265 265 266 267 267 268 268
265 266 268 271 269 268 267 267 265 265 266 266 266 265 265 265 265 265 264 263 263 263 263 263 263 262 263 262 261 263 264 265 267 267 266 266 266 267 267 268 269 269 269 269
264 266 268 270 269 269 268 269 266 265 266 267 267 267 266 265 265 265 265 264 264 264 263 263 264 263 264 265 263 263 265 267 267 268 268 268 268 269 270 269 269 270 271 271
265 267 269 269 267 267 268 269 267 266 266 267 267 266 266 266 266 266 266 264 263 263 263 263 264 264 264 266 265 264 265 267 267 269 270 270 271 271 272 272 271 272 272 273
268 268 268 266 265 266 267 268 267 266 265 266 267 266 266 267 267 267 267 265 263 263 264 265 264 265 265 266 266 266 267 268 269 270 271 273 273 273 274 274 274 275 274 273
268 268 267 265 264 265 266 267 267 267 267 266 267 267 267 268 267 266 266 265 264 263 264 265 265 265 267 267 268 268 269 269 270 271 272 273 274 275 275 276 276 276 275 274
268 267 266 265 265 265 264 266 267 267 268 267 268 268 267 267 267 266 265 265 265 265 264 265 266 267 268 269 269 269 269 269 270 271 272 274 275 276 277 277 277 276 275 276
268 266 265 265 264 264 265 265 265 265 266 267 267 267 267 267 268 267 265 265 266 265 265 266 267 268 269 269 269 270 270 270 271 272 273 274 276 277 278 278 278 277 277 277
266 265 264 265 266 266 267 266 265 266 267 268 268 267 267 267 267 266 264 264 264 265 266 267 269 269 268 268 269 271 272 271 271 272 274 274 276 277 279 280 280 280 279 278
265 265 266 267 268 268 268 268 267 267 268 269 270 269 268 266 265 265 264 264 265 266 267 268 270 270 270 270 270 271 272 272 272 273 275 275 276 278 279 280 280 280 280 280
265 266 268 268 268 270 272 271 271 271 270 269 270 270 267 264 263 264 264 265 266 268 269 270 271 272 274 274 273 273 273 273 274 274 274 276 277 278 279 280 280 281 281 282
263 265 268 270 271 273 274 273 274 274 272 270 269 267 265 262 262 262 265 266 267 268 270 271 272 274 276 276 275 275 275 276 276 275 275 277 278 279 279 280 281 281 282 283
265 267 269 270 272 274 275 276 277 276 275 272 268 267 266 264 263 263 264 266 268 270 271 272 273 274 277 278 277 277 279 279 278 278 279 279 280 281 281 282 282 282 283 284
269 268 269 271 273 276 277 277 277 275 274 271 269 268 266 266 265 265 266 267 269 270 272 275 277 277 276 277 278 279 280 279 278 280 281 281 282 283 284 283 284 284 284 285
270 268 267 268 271 275 276 275 275 274 272 272 270 267 267 267 267 267 268 269 270 270 272 275 278 279 279 279 280 280 279 279 279 280 282 283 283 284 284 285 286 286 286 287
271 269 268 268 271 274 274 273 273 273 273 272 270 268 268 269 269 270 269 270 271 272 274 276 278 279 279 280 281 280 279 279 279 280 282 283 284 285 286 287 287 288 288 290
271 270 270 271 273 274 273 271 271 272 272 273 273 270 269 271 272 272 271 272 273 274 275 277 278 279 279 280 280 280 279 280 280 282 283 285 286 287 288 289 290 290 291 293
274 273 272 272 272 272 272 270 270 269 270 273 274 273 272 273 274 274 274 274 275 276 277 277 278 279 279 279 280 279 280 280 281 282 284 286 287 288 290 291 291 292 293 295
275 273 272 271 270 271 271 270 268 268 269 272 274 275 274 274 273 273 276 276 276 277 278 279 279 281 282 281 280 280 280 282 283 284 286 287 288 289 290 291 292 293 295 296
274 273 272 270 270 270 271 271 268 268 271 273 275 276 275 273 271 270 273 275 275 277 278 280 282 283 286 286 285 284 283 284 286 287 288 290 291 291 292 292 293 295 296 298
273 273 271 269 269 271 270 269 267 268 271 274 277 277 274 271 270 271 274 275 276 277 279 281 284 286 288 288 289 288 287 288 289 290 290 292 294 294 294 295 295 296 297 299
276 274 272 270 269 270 269 267 266 267 270 273 275 275 274 273 273 274 275 276 277 278 279 282 286 289 291 292 292 291 291 292 293 293 294 294 296 298 299 299 299 298 298 299
279 277 272 268 267 266 266 265 266 267 269 270 272 274 276 277 276 275 276 277 279 280 283 286 289 292 294 294 294 295 295 296 296 295 296 297 298 300 302 302 301 300 299 299
Height
5597 5598 5599 5600 5600 5601 5600 5600 5600 5602 5602 5603 5602 5602 5602 5602 5602 5602 5602 5603 5603 5603 5604 5604 5605 5605 5606 5607 5608 5609 5610 5612 5612 5613 5614 5615 5616 5616 5617 5618 5619 5619 5619 5619
5589 5590 5590 5590 5592 5592 5592 5593 5592 5592 5593 5594 5593 5593 5593 5593 5593 5593 5594 5594 5594 5595 5595 5596 5596 5597 5598 5598 5599 5600 5601 5602 5603 5603 5604 5604 5605 5605 5606 5607 5607 5608 5608 5608
5580 5581 5580 5582 5585 5584 5584 5584 5584 5583 5585 5584 5584 5584 5584 5584 5584 5585 5585 5585 5585 5586 5586 5587 5587 5588 5589 5589 5590 5591 5592 5592 5593 5593 5593 5594 5594 5594 5595 5595 5595 5596 5595 5595
5571 5572 5572 5578 5576 5576 5575 5576 5575 5575 5575 5575 5575 5575 5575 5575 5575 5576 5576 5576 5576 5577 5577 5578 5578 5579 5580 5580 5581 5582 5582 5582 5582 5583 5583 5583 5583 5583 5584 5584 5584 5584 5583 5583
5562 5562 5563 5568 5568 5567 5566 5567 5567 5566 5566 5566 5566 5566 5567 5566 5566 5566 5567 5567 5568 5568 5569 5569 5569 5570 5570 5571 5572 5572 5572 5572 5572 5572 5572 5572 5573 5573 5573 5572 5572 5572 5571 5571
5554 5554 5555 5560 5559 5558 5558 5558 5559 5558 5557 5557 5557 5558 5559 5558 5558 5558 5558 5558 5559 5559 5560 5560 5560 5561 5561 5562 5562 5563 5563 5563 5562 5562 5562 5562 5562 5562 5562 5561 5561 5560 5560 5559
5546 5545 5547 5550 5549 5549 5550 5551 5550 5549 5549 5549 5549 5549 5550 5549 5549 5549 5549 5549 5550 5550 5550 5551 5551 5551 5552 5553 5553 5553 5553 5553 5553 5553 5553 5552 5552 5552 5551 5550 5550 5549 5549 5548
5538 5537 5542 5541 5540 5540 5540 5540 5540 5540 5540 5540 5540 5540 5540 5540 5540 5540 5540 5540 5540 5541 5541 5541 5542 5542 5543 5543 5543 5543 5543 5543 5543 5543 5543 5542 5542 5541 5540 5540 5539 5538 5537 5536
5530 5532 5532 5531 5531 5531 5531 5531 5531 5531 5531 5531 5531 5531 5531 5531 5531 5531 5531 5531 5531 5532 5532 5532 5533 5533 5534 5534 5534 5533 5534 5533 5533 5533 5532 5532 5531 5531 5530 5529 5528 5527 5526 5525
5520 5522 5522 5522 5522 5522 5522 5522 5522 5522 5522 5523 5522 5522 5522 5522 5522 5522 5522 5522 5522 5523 5523 5523 5524 5524 5524 5524 5524 5524 5524 5524 5523 5523 5522 5522 5521 5520 5519 5518 5517 5516 5515 5514
5511 5512 5512 5513 5513 5513 5513 5513 5513 5513 5513 5513 5513 5513 5513 5513 5513 5513 5513 5514 5514 5514 5514 5514 5515 5515 5515 5515 5514 5514 5514 5514 5513 5513 5512 5512 5511 5510 5509 5508 5506 5505 5504 5503
5503 5504 5504 5505 5505 5504 5504 5505 5504 5504 5504 5504 5504 5504 5504 5504 5504 5504 5504 5505 5505 5505 5505 5506 5506 5506 5505 5505 5505 5505 5504 5504 5503 5503 5502 5502 5501 5500 5498 5497 5495 5494 5493 5492
5495 5495 5495 5496 5496 5496 5496 5496 5496 5496 5496 5496 5495 5495 5495 5495 5495 5495 5495 5496 5496 5496 5497 5497 5497 5496 5496 5496 5495 5495 5495 5494 5494 5493 5492 5492 5491 5489 5488 5487 5485 5483 5481 5480
5487 5487 5488 5488 5488 5488 5488 5487 5487 5487 5487 5487 5486 5486 5486 5486 5486 5486 5487 5487 5488 5488 5488 5488 5488 5488 5487 5487 5486 5486 5485 5484 5484 5483 5482 5481 5480 5479 5478 5476 5475 5472 5471 5469
5481 5480 5480 5480 5480 5480 5479 5479 5479 5479 5478 5478 5477 5477 5477 5477 5478 5478 5479 5479 5479 5480 5480 5479 5479 5479 5478 5477 5477 5476 5476 5475 5474 5473 5472 5471 5470 5469 5467 5466 5464 5462 5460 5458
5474 5473 5473 5473 5473 5473 5472 5471 5471 5470 5470 5469 5469 5469 5469 5469 5470 5471 5471 5471 5472 5472 5471 5471 5471 5470 5470 5469 5468 5467 5466 5466 5465 5464 5463 5462 5461 5459 5458 5456 5454 5452 5450 5448
5467 5467 5467 5467 5466 5466 5465 5464 5463 5463 5462 5461 5461 5461 5461 5461 5462 5463 5463 5464 5464 5464 5464 5463 5463 5462 5461 5460 5460 5459 5458 5457 5456 5455 5454 5453 5451 5449 5448 5446 5444 5442 5440 5438
5460 5460 5460 5460 5459 5459 5458 5457 5456 5455 5455 5454 5454 5453 5454 5454 5455 5455 5455 5456 5456 5456 5456 5455 5455 5454 5453 5452 5452 5451 5450 5449 5448 5447 5446 5444 5442 5440 5438 5437 5435 5433 5431 5428
5453 5453 5453 5452 5452 5451 5451 5450 5449 5448 5448 5447 5447 5447 5447 5447 5448 5448 5448 5449 5449 5449 5449 5448 5447 5446 5446 5445 5444 5443 5442 5441 5440 5439 5438 5436 5434 5432 5430 5428 5426 5424 5422 5420
5446 5446 5445 5445 5444 5444 5443 5443 5442 5442 5441 5441 5441 5441 5441 5441 5441 5441 5441 5441 5441 5441 5441 5440 5439 5439 5438 5437 5436 5435 5435 5434 5433 5431 5430 5428 5426 5424 5422 5420 5418 5416 5413 5411
5439 5438 5438 5438 5437 5437 5436 5436 5436 5435 5435 5435 5434 5434 5434 5434 5434 5434 5434 5434 5433 5433 5433 5432 5432 5431 5430 5430 5429 5428 5427 5426 5425 5424 5422 5421 5419 5416 5414 5412 5409 5407 5404 5401
5432 5431 5431 5431 5430 5430 5430 5429 5429 5429 5429 5428 5428 5428 5427 5427 5427 5427 5427 5426 5426 5426 5425 5425 5424 5424 5423 5423 5422 5421 5420 5419 5417 5416 5414 5413 5411 5408 5406 5404 5401 5399 5396 5393
5425 5425 5424 5424 5424 5423 5423 5423 5423 5423 5423 5422 5422 5421 5421 5420 5420 5420 5420 5420 5419 5419 5418 5418 5417 5417 5416 5415 5414 5413 5412 5411 5410 5408 5406 5405 5402 5400 5398 5396 5393 5390 5387 5384
5419 5418 5418 5418 5418 5417 5417 5417 5417 5417 5417 5417 5416 5415 5415 5414 5414 5414 5414 5413 5413 5412 5412 5411 5411 5410 5409 5408 5407 5406 5405 5404 5402 5400 5399 5397 5394 5392 5390 5387 5384 5381 5378 5375
5413 5412 5412 5412 5412 5412 5412 5412 5412 5412 5411 5411 5410 5409 5409 5408 5408 5408 5408 5407 5407 5407 5406 5406 5405 5404 5403 5402 5401 5399 5398 5396 5395 5393 5391 5389 5387 5384 5382 5379 5376 5373 5370 5367
5408 5407 5407 5407 5407 5407 5406 5406 5406 5406 5406 5406 5405 5404 5404 5403 5403 5402 5402 5402 5402 5401 5401 5400 5399 5398 5397 5396 5394 5393 5391 5390 5388 5386 5384 5382 5380 5377 5374 5372 5369 5366 5363 5361
5402 5402 5401 5401 5401 5401 5401 5402 5402 5402 5401 5401 5401 5400 5399 5399 5398 5397 5397 5397 5397 5396 5396 5395 5394 5393 5391 5390 5388 5386 5385 5383 5381 5379 5377 5375 5373 5371 5368 5365 5362 5360 5357 5354